Location: Unspecified
(0.0000°N, 0.0000°E)
Time: 23:17:35
(UTC+00:00)

Courier 1B Rocket - Visible Passes

Search period start: 25 November 2014 00:00
Search period end: 05 December 2014 00:00
Orbit: 920 x 1202 km, 28.2° (Epoch: 24 November)

Date Brightness Start Highest point End Pass type
(mag) Time Alt. Az. Time Alt. Az. Time Alt. Az.
25 Nov 6.7 18:36:48 10° N 18:39:06 12° NNE 18:40:39 11° NE visible
26 Nov 6.1 19:26:45 10° NNW 19:30:33 25° N 19:30:33 25° N visible
27 Nov 6.3 18:26:33 10° NNW 18:30:56 19° NNE 18:34:09 13° ENE visible
27 Nov 6.6 20:18:21 10° NW 20:20:36 23° NW 20:20:36 23° NW visible
28 Nov 5.1 19:17:37 10° NW 19:23:40 45° NNE 19:24:21 43° NE visible
29 Nov 7.7 04:54:44 10° S 04:58:10 14° SSE 05:01:39 10° SE visible
29 Nov 5.8 18:17:03 10° NNW 18:22:38 30° NNE 18:28:01 10° E visible
29 Nov 5.4 20:09:49 10° WNW 20:14:42 53° W 20:14:42 53° W visible
30 Nov 4.8 19:08:46 10° NW 19:15:13 73° NNE 19:18:43 28° ESE visible
30 Nov 7.2 21:03:19 10° W 21:05:11 18° WSW 21:05:11 18° WSW visible
01 Dec 7.5 04:44:55 10° SSW 04:49:54 20° SSE 04:55:04 10° ESE visible
01 Dec 5.3 18:07:53 10° NW 18:14:15 47° NNE 18:20:17 10° ESE visible
01 Dec 5.8 20:01:37 10° W 20:07:40 45° SSW 20:09:18 37° S visible
02 Dec 7.7 03:45:26 10° S 03:48:27 13° SSE 03:51:33 10° SE visible
02 Dec 5.2 19:00:12 10° WNW 19:06:44 71° SSW 19:12:59 10° SE visible
02 Dec 7.1 20:56:04 10° WSW 20:59:55 19° SSW 20:59:55 19° SSW visible
03 Dec 7.1 04:35:32 10° SSW 04:41:29 28° SSE 04:47:44 10° E visible
03 Dec 6.6 19:53:48 10° W 19:59:15 29° SSW 20:04:03 12° SSE visible
04 Dec 7.4 03:35:32 10° SSW 03:40:12 19° SSE 03:45:03 10° ESE visible
04 Dec 6.1 18:51:57 10° W 18:58:14 44° SSW 19:04:14 10° SE visible
04 Dec 7.5 20:49:49 10° SW 20:52:08 12° SSW 20:54:25 10° S visible
